Regional Weather Roundup
Issued by NWS Goodland, KS

Home | Current Version | Previous Version | Graphics & Text | Print | Product List | Glossary On
Versions: 1 2 3 4 5 6 7 8 9 10 11 12 13 14 15 16 17 18 19 20 21 22 23 24 25 26 27 28 29 30 31 32 33 34 35 36 37 38 39 40 41 42 43 44 45 46 47 48 49 50
000
ASUS43 KGLD 281159
RWRGLD

GOODLAND FORECAST AREA HOURLY WEATHER ROUNDUP
NATIONAL WEATHER SERVICE GOODLAND KS
600 AM MDT SAT MAR 28 2015

...OFFICIAL OBSERVATIONS...

CITY           SKY/WX    TMP DP  RH WIND       PRES   REMARKS
GOODLAND KS    CLEAR     40  33  76 W6        30.01R
HILL CITY KS   CLEAR     33  29  85 E6        29.98R
IMPERIAL NEB     N/A     35  28  75 N3        29.99R
MCCOOK NEB     CLEAR     35  31  85 W9        29.97R
AKRON CO       CLEAR     44  31  60 W13       30.03R
BURLINGTON CO  CLEAR     38  31  76 W10       30.03R
LIMON CO       CLEAR     38  29  70 NW7       30.09R
$$

...UNOFFICIAL OBSERVATIONS...

CITY           SKY/WX    TMP DP  RH WIND       PRES   REMARKS
COLBY KS       CLEAR     37  36  93 W8        29.99R
GOVE KS          N/A     38  32  79 MISG        N/A
LENORA KS        N/A     35  32  89 MISG        N/A
NORTON KS      CLEAR     34  28  80 N5        29.98R
SHARON SPRINGS   N/A     41  33  73 N5          N/A
TRIBUNE KS     CLEAR     46  39  76 NW9       30.02R
KIT CARSON CO    N/A     40  31  71 MISG        N/A
YUMA CO          N/A     35  29  80 CALM        N/A
$$



USA.gov is the U.S. government's official web portal to all federal, state and local government web resources and services.